TimeHST,TemperatureF,Dew PointF,Humidity,Sea Level PressureIn,VisibilityMPH,Wind Direction,Wind SpeedMPH,Gust SpeedMPH,PrecipitationIn,Events,Conditions,WindDirDegrees,DateUTC
12:09 AM,64.4,62.6,94,30.02,10.0,NNW,8.1,-,N/A,,Overcast,340,2014-03-08 10:09:00
12:12 AM,64.4,62.6,94,30.02,10.0,NNW,6.9,-,N/A,,Light Drizzle,330,2014-03-08 10:12:00
12:28 AM,64.4,60.8,88,30.02,8.0,NNW,5.8,-,N/A,,Overcast,340,2014-03-08 10:28:00
12:43 AM,64.4,60.8,88,30.02,5.0,NNW,4.6,-,N/A,,Scattered Clouds,340,2014-03-08 10:43:00
12:51 AM,64.4,60.8,88,30.02,4.0,NW,4.6,-,N/A,,Light Drizzle,320,2014-03-08 10:51:00
12:58 AM,63.7,61.3,92,30.00,5.0,NW,4.6,-,0.00,,Light Drizzle,310,2014-03-08 10:58:00
1:00 AM,64.4,60.8,88,30.02,5.0,NW,3.5,-,N/A,,Clear,310,2014-03-08 11:00:00
1:24 AM,64.4,62.6,94,30.03,10.0,NW,5.8,-,N/A,,Light Drizzle,310,2014-03-08 11:24:00
1:34 AM,64.4,62.6,94,30.03,6.0,West,8.1,-,N/A,,Light Drizzle,280,2014-03-08 11:34:00
1:42 AM,64.4,62.6,94,30.03,9.0,WNW,5.8,-,N/A,,Mostly Cloudy,290,2014-03-08 11:42:00
1:45 AM,64.4,62.6,94,30.02,10.0,WNW,4.6,-,N/A,,Light Drizzle,300,2014-03-08 11:45:00
1:56 AM,64.4,62.6,94,30.02,10.0,WNW,4.6,-,N/A,,Overcast,290,2014-03-08 11:56:00
1:58 AM,64.4,62.6,94,30.00,10.0,WNW,3.5,-,0.01,,Overcast,300,2014-03-08 11:58:00
2:13 AM,64.4,62.6,94,30.01,10.0,NW,3.5,-,N/A,,Scattered Clouds,310,2014-03-08 12:13:00
2:58 AM,63.9,62.1,94,29.97,10.0,West,3.5,-,N/A,,Partly Cloudy,280,2014-03-08 12:58:00
3:36 AM,64.4,62.6,94,29.99,10.0,WNW,5.8,-,N/A,Rain,Light Rain,290,2014-03-08 13:36:00
3:58 AM,64.6,62.6,93,29.97,10.0,North,1.2,-,0.00,,Light Drizzle,10,2014-03-08 13:58:00
4:42 AM,64.4,62.6,94,29.99,10.0,NNW,2.3,-,N/A,,Overcast,340,2014-03-08 14:42:00
4:52 AM,64.4,62.6,94,29.99,10.0,WNW,3.5,-,N/A,,Light Drizzle,300,2014-03-08 14:52:00
4:58 AM,64.8,62.8,93,29.97,10.0,ESE,2.3,-,0.01,,Light Drizzle,110,2014-03-08 14:58:00
5:02 AM,64.4,62.6,94,29.98,10.0,East,2.3,-,N/A,,Mostly Cloudy,90,2014-03-08 15:02:00
5:58 AM,64.0,62.2,94,30.00,10.0,WNW,6.9,-,0.00,,Scattered Clouds,300,2014-03-08 15:58:00
6:43 AM,64.4,62.6,94,30.02,10.0,North,3.5,-,N/A,,Overcast,350,2014-03-08 16:43:00
6:58 AM,65.3,63.5,94,30.00,10.0,ENE,5.8,-,N/A,,Overcast,60,2014-03-08 16:58:00
7:18 AM,64.4,62.6,94,30.03,10.0,WNW,3.5,-,N/A,,Mostly Cloudy,290,2014-03-08 17:18:00
7:23 AM,64.4,62.6,94,30.03,10.0,West,2.3,-,N/A,,Mostly Cloudy,280,2014-03-08 17:23:00
7:28 AM,64.4,62.6,94,30.04,10.0,NW,4.6,-,N/A,,Mostly Cloudy,310,2014-03-08 17:28:00
7:58 AM,65.8,64.0,94,30.04,10.0,WNW,4.6,-,N/A,,Overcast,290,2014-03-08 17:58:00
8:58 AM,67.6,65.1,92,30.05,10.0,Variable,3.5,-,N/A,,Mostly Cloudy,0,2014-03-08 18:58:00
9:58 AM,69.6,65.1,86,30.06,10.0,NNW,5.8,-,N/A,,Overcast,330,2014-03-08 19:58:00
10:33 AM,71.6,64.4,78,30.07,10.0,Variable,3.5,-,N/A,,Overcast,0,2014-03-08 20:33:00
10:38 AM,71.6,64.4,78,30.07,10.0,Variable,1.2,-,N/A,,Overcast,0,2014-03-08 20:38:00
10:48 AM,71.6,64.4,78,30.07,10.0,NNE,3.5,-,N/A,,Mostly Cloudy,30,2014-03-08 20:48:00
10:58 AM,71.4,64.6,79,30.05,10.0,NW,4.6,-,N/A,,Overcast,320,2014-03-08 20:58:00
11:28 AM,71.6,66.2,83,30.06,10.0,Variable,6.9,-,N/A,,Scattered Clouds,0,2014-03-08 21:28:00
11:38 AM,71.6,66.2,83,30.06,10.0,North,6.9,-,N/A,,Mostly Cloudy,360,2014-03-08 21:38:00
11:43 AM,71.6,66.2,83,30.06,10.0,Variable,4.6,-,N/A,,Mostly Cloudy,0,2014-03-08 21:43:00
11:58 AM,73.2,66.0,78,30.04,10.0,North,5.8,-,N/A,,Overcast,350,2014-03-08 21:58:00
12:13 PM,73.4,66.2,78,30.05,10.0,North,8.1,-,N/A,,Mostly Cloudy,360,2014-03-08 22:13:00
12:34 PM,71.6,66.2,83,30.04,10.0,North,9.2,-,N/A,,Light Drizzle,350,2014-03-08 22:34:00
12:39 PM,71.6,68.0,88,30.04,9.0,NNW,8.1,-,N/A,,Drizzle,340,2014-03-08 22:39:00
12:50 PM,71.6,68.0,88,30.04,10.0,NW,9.2,-,N/A,,Clear,320,2014-03-08 22:50:00
12:58 PM,72.7,67.8,85,30.01,10.0,North,10.4,-,0.00,,Partly Cloudy,350,2014-03-08 22:58:00
1:03 PM,73.4,66.2,78,30.03,10.0,North,9.2,-,N/A,,Light Drizzle,360,2014-03-08 23:03:00
1:18 PM,71.6,66.2,83,30.03,9.0,NNE,5.8,-,N/A,Rain,Light Rain,30,2014-03-08 23:18:00
1:23 PM,71.6,66.2,83,30.03,7.0,Variable,4.6,-,N/A,Rain,Light Rain,0,2014-03-08 23:23:00
1:28 PM,71.6,68.0,88,30.03,6.0,North,4.6,-,N/A,Rain,Light Rain,350,2014-03-08 23:28:00
1:48 PM,71.6,66.2,83,30.02,10.0,North,8.1,-,N/A,,Mostly Cloudy,350,2014-03-08 23:48:00
1:58 PM,71.1,67.5,88,30.00,10.0,NNW,8.1,-,0.01,,Mostly Cloudy,340,2014-03-08 23:58:00
2:07 PM,71.6,68.0,88,30.02,10.0,NNW,6.9,-,N/A,,Light Drizzle,340,2014-03-09 00:07:00
2:37 PM,69.8,68.0,94,30.02,6.0,North,6.9,-,N/A,Rain,Light Rain,350,2014-03-09 00:37:00
2:42 PM,69.8,66.2,88,30.02,9.0,NW,4.6,-,N/A,,Light Drizzle,320,2014-03-09 00:42:00
2:52 PM,69.8,66.2,88,30.01,5.0,Variable,6.9,-,N/A,Rain,Light Rain,0,2014-03-09 00:52:00
2:57 PM,69.8,68.0,94,30.01,5.0,NNW,5.8,-,N/A,Rain,Light Rain,330,2014-03-09 00:57:00
2:58 PM,70.2,67.1,90,29.99,5.0,NNW,6.9,-,0.02,Rain,Light Rain,330,2014-03-09 00:58:00
3:03 PM,69.8,68.0,94,30.01,10.0,North,6.9,-,N/A,,Scattered Clouds,10,2014-03-09 01:03:00
3:24 PM,69.8,66.2,88,30.02,6.0,NNE,8.1,-,N/A,Rain,Light Rain,30,2014-03-09 01:24:00
3:29 PM,69.8,66.2,88,30.02,4.0,NNE,5.8,-,N/A,Rain,Rain,20,2014-03-09 01:29:00
3:34 PM,69.8,66.2,88,30.02,2.5,NNE,4.6,-,N/A,Rain,Rain,20,2014-03-09 01:34:00
3:44 PM,69.8,66.2,88,30.02,3.0,NNW,3.5,-,N/A,Rain,Light Rain,340,2014-03-09 01:44:00
3:58 PM,69.1,66.2,91,30.00,5.0,NW,2.3,-,0.02,Rain,Light Rain,320,2014-03-09 01:58:00
4:13 PM,69.8,66.2,88,30.02,2.5,Variable,2.3,-,N/A,Rain,Light Rain,0,2014-03-09 02:13:00
4:18 PM,69.8,66.2,88,30.02,3.0,South,3.5,-,N/A,Rain,Light Rain,170,2014-03-09 02:18:00
4:23 PM,69.8,66.2,88,30.02,6.0,SSW,2.3,-,N/A,Rain,Light Rain,200,2014-03-09 02:23:00
4:28 PM,68.0,66.2,94,30.02,10.0,Variable,2.3,-,N/A,,Light Drizzle,0,2014-03-09 02:28:00
4:31 PM,69.8,66.2,88,30.02,10.0,SSE,2.3,-,N/A,,Mostly Cloudy,160,2014-03-09 02:31:00
4:36 PM,69.8,66.2,88,30.03,10.0,Variable,3.5,-,N/A,,Overcast,0,2014-03-09 02:36:00
4:48 PM,69.8,66.2,88,30.03,10.0,South,3.5,-,N/A,,Light Drizzle,180,2014-03-09 02:48:00
4:55 PM,69.8,66.2,88,30.03,10.0,ENE,5.8,-,N/A,,Overcast,60,2014-03-09 02:55:00
4:58 PM,68.9,66.0,90,30.01,10.0,East,4.6,-,0.03,,Overcast,80,2014-03-09 02:58:00
5:23 PM,69.8,66.2,88,30.04,10.0,NW,5.8,-,N/A,,Overcast,310,2014-03-09 03:23:00
5:37 PM,68.0,66.2,94,30.04,10.0,NNW,5.8,-,N/A,,Light Drizzle,330,2014-03-09 03:37:00
5:42 PM,68.0,66.2,94,30.04,10.0,WNW,4.6,-,N/A,,Light Drizzle,300,2014-03-09 03:42:00
5:47 PM,68.0,66.2,94,30.05,10.0,NW,5.8,-,N/A,,Light Drizzle,320,2014-03-09 03:47:00
5:52 PM,68.0,66.2,94,30.05,10.0,NNW,4.6,-,N/A,,Overcast,340,2014-03-09 03:52:00
5:58 PM,68.4,65.7,91,30.04,10.0,North,3.5,-,0.00,,Mostly Cloudy,10,2014-03-09 03:58:00
6:03 PM,68.0,66.2,94,30.05,10.0,Variable,4.6,-,N/A,,Mostly Cloudy,0,2014-03-09 04:03:00
6:17 PM,68.0,66.2,94,30.05,10.0,NW,8.1,-,N/A,,Light Drizzle,320,2014-03-09 04:17:00
6:27 PM,68.0,64.4,88,30.05,10.0,Variable,5.8,-,N/A,,Mostly Cloudy,0,2014-03-09 04:27:00
6:57 PM,68.0,64.4,88,30.06,10.0,NW,6.9,-,N/A,,Overcast,320,2014-03-09 04:57:00
6:58 PM,68.0,64.4,88,30.04,10.0,NW,5.8,-,0.00,,Overcast,320,2014-03-09 04:58:00
7:23 PM,66.2,64.4,94,30.07,10.0,NW,5.8,-,N/A,,Mostly Cloudy,310,2014-03-09 05:23:00
7:28 PM,66.2,64.4,94,30.07,10.0,WNW,6.9,-,N/A,,Mostly Cloudy,300,2014-03-09 05:28:00
7:58 PM,66.9,64.6,92,30.07,10.0,NW,6.9,-,N/A,,Overcast,310,2014-03-09 05:58:00
8:43 PM,66.2,64.4,94,30.09,10.0,NW,5.8,-,N/A,,Scattered Clouds,310,2014-03-09 06:43:00
8:48 PM,66.2,64.4,94,30.10,10.0,NW,6.9,-,N/A,,Mostly Cloudy,310,2014-03-09 06:48:00
8:58 PM,66.2,64.4,94,30.09,10.0,North,5.8,-,N/A,,Scattered Clouds,350,2014-03-09 06:58:00
9:28 PM,66.2,64.4,94,30.10,10.0,NW,8.1,-,N/A,,Mostly Cloudy,320,2014-03-09 07:28:00
9:58 PM,67.1,64.4,91,30.09,10.0,NW,5.8,-,N/A,,Overcast,310,2014-03-09 07:58:00
10:03 PM,68.0,64.4,88,30.11,10.0,NW,6.9,-,N/A,,Overcast,310,2014-03-09 08:03:00
10:13 PM,68.0,64.4,88,30.11,10.0,NW,5.8,-,N/A,,Overcast,310,2014-03-09 08:13:00
10:58 PM,67.3,64.9,92,30.09,10.0,NW,3.5,-,N/A,,Overcast,320,2014-03-09 08:58:00
11:13 PM,68.0,64.4,88,30.11,10.0,North,4.6,-,N/A,,Light Drizzle,10,2014-03-09 09:13:00
11:23 PM,68.0,64.4,88,30.10,10.0,NNW,3.5,-,N/A,,Light Drizzle,340,2014-03-09 09:23:00
11:25 PM,68.0,64.4,88,30.10,10.0,NNW,4.6,-,N/A,,Mostly Cloudy,330,2014-03-09 09:25:00
11:30 PM,68.0,64.4,88,30.10,10.0,NW,4.6,-,N/A,,Scattered Clouds,320,2014-03-09 09:30:00
11:55 PM,66.2,64.4,94,30.10,10.0,WNW,4.6,-,N/A,,Mostly Cloudy,290,2014-03-09 09:55:00
11:58 PM,66.4,64.4,93,30.08,10.0,WNW,4.6,-,0.00,,Mostly Cloudy,290,2014-03-09 09:58:00